RH
98 100 98 70 81 74 45 47 50 39 35 35 32 36 50 43 46 41 40 30 28 27 23 19 24 36 44 42 43 43 39 40 42 44 46 45 46 46 46 47 50 51 54 72
100 82 100 95 89 99 76 63 84 58 46 32 43 35 36 53 48 54 47 32 29 30 29 28 25 23 27 33 41 46 44 43 42 44 46 47 48 48 49 52 58 55 49 50
92 99 100 100 98 99 100 92 94 86 66 53 32 42 44 37 41 57 58 56 51 33 37 29 28 30 30 24 28 38 44 48 50 51 55 56 57 56 54 53 53 54 52 52
100 100 81 93 88 91 100 100 87 99 84 78 56 37 44 49 45 46 63 74 51 63 37 37 33 34 28 31 30 36 36 30 27 28 32 37 42 42 41 44 45 47 50 44
78 86 100 90 98 86 74 100 98 96 100 84 83 59 44 52 54 58 47 54 87 80 74 54 44 34 35 36 36 36 32 32 33 35 40 45 44 42 41 42 40 42 38 38
100 100 100 100 100 87 77 100 96 93 97 100 92 78 76 53 56 67 61 62 58 89 85 87 72 59 46 44 43 37 37 34 37 32 32 33 34 34 35 37 38 39 42 43
83 85 99 100 100 100 100 100 88 100 96 96 95 100 96 85 72 83 72 70 66 60 86 90 87 85 70 62 50 48 43 41 34 37 43 45 51 41 41 43 40 38 38 36
89 94 79 86 100 100 100 100 100 100 100 92 100 93 82 100 85 92 94 80 74 80 78 93 97 81 89 88 69 72 70 55 59 66 48 54 48 73 58 56 59 60 49 46
100 99 100 79 81 100 100 100 100 100 100 100 100 100 100 100 100 100 100 99 84 69 69 76 86 85 88 89 97 77 70 69 61 65 83 76 95 84 88 73 70 74 68 68
100 100 97 93 89 99 99 100 100 100 100 100 100 100 100 99 100 100 100 100 94 83 71 69 71 64 81 91 83 85 71 73 58 68 74 93 87 74 73 85 58 85 83 84
99 100 100 100 94 74 98 100 100 100 100 100 100 100 100 100 100 100 100 100 100 99 98 89 82 75 68 86 87 100 90 81 83 72 77 85 84 74 73 62 55 62 90 96
92 100 100 100 100 99 85 79 97 100 100 100 100 91 100 100 100 100 100 100 100 100 100 100 100 91 100 99 93 100 100 92 77 93 96 100 100 100 90 86 91 97 93 80
85 97 96 100 100 95 100 100 100 82 92 100 100 100 100 100 100 100 100 100 100 100 100 100 100 100 99 96 98 99 93 100 100 100 98 93 100 100 94 90 100 100 100 100
79 73 89 76 92 85 78 97 100 88 74 69 98 100 100 100 100 100 100 100 100 100 100 100 100 90 82 85 67 57 58 74 86 100 100 94 81 93 100 100 97 99 100 98
100 99 100 94 64 75 66 80 94 94 86 74 73 91 100 100 100 100 100 100 100 100 100 100 100 100 97 100 99 87 56 55 53 78 72 84 100 60 90 100 100 73 60 63
84 83 85 100 71 63 67 74 81 85 75 77 76 84 92 99 100 100 100 100 100 100 100 100 100 100 100 86 100 100 83 87 75 63 75 88 75 66 58 60 72 93 93 65
64 81 71 64 72 55 58 71 68 76 70 65 69 69 78 80 92 100 100 100 100 100 100 100 100 100 100 100 100 96 89 97 100 99 94 95 87 86 80 72 62 63 66 78
53 62 62 52 59 62 66 62 58 63 64 62 60 63 68 66 75 78 87 92 98 100 100 100 100 100 100 100 100 100 100 100 99 90 89 92 85 84 89 89 86 79 70 72
43 57 80 66 58 70 71 56 52 48 49 52 49 52 56 53 57 63 68 67 73 78 91 100 100 100 100 100 100 100 100 100 100 100 99 88 78 71 73 76 71 79 77 76
32 36 30 40 75 62 68 68 56 55 50 51 43 39 40 46 45 44 54 59 65 65 59 73 95 100 100 100 100 100 100 100 88 87 84 85 88 84 83 89 95 97 97 100
31 31 32 33 35 36 40 37 38 39 34 38 33 32 35 34 35 30 36 49 61 59 58 70 90 100 100 100 91 91 91 87 90 97 98 99 98 100 100 99 92 82 80 76
27 32 30 28 31 31 23 26 26 26 24 27 25 25 23 28 30 27 29 35 38 37 48 56 71 87 91 84 86 88 83 79 82 91 99 98 97 90 83 81 85 84 73 51
18 17 18 18 19 20 19 17 17 16 17 17 16 16 18 18 21 22 22 23 26 27 28 37 64 69 63 69 75 82 86 82 74 78 85 86 81 80 70 70 56 40 42 24
16 16 16 16 15 15 15 15 15 14 14 15 14 14 14 14 14 14 15 18 21 23 25 27 26 24 25 29 36 38 59 75 76 78 80 68 42 20 20 19 22 15 14 15
15 14 14 14 14 14 14 14 13 13 13 14 14 13 13 13 14 14 13 13 13 13 15 15 17 20 23 24 22 27 41 49 52 48 44 20 14 14 13 14 14 13 13 13
13 13 13 13 14 13 13 13 13 13 12 12 12 12 13 12 12 13 13 13 13 13 12 12 13 14 16 17 16 16 16 15 13 12 12 12 12 11 11 12 11 11 11 10
13 13 13 13 13 12 12 12 12 11 11 11 11 11 12 12 13 14 14 13 12 11 12 12 12 12 13 12 12 11 11 12 12 12 11 11 10 10 9 9 9 8 8 8
Wind_Speed
27 28 30 34 35 39 45 47 49 50 52 52 53 55 58 62 64 66 69 73 70 58 45 20 10 19 24 24 24 24 24 24 26 26 27 29 32 36 40 43 46 50 53 58
25 28 32 29 31 33 38 42 44 44 49 50 49 49 50 51 56 57 59 63 66 65 62 49 37 13 12 19 22 20 21 22 22 22 22 23 26 28 32 35 41 47 44 53
29 28 27 31 31 29 31 34 40 41 43 46 46 46 45 46 46 47 51 54 55 58 60 58 53 45 34 18 5 15 21 25 26 28 30 32 32 32 34 36 40 44 47 51
27 30 28 30 29 28 30 27 35 36 38 37 41 43 43 43 42 42 40 43 46 47 51 51 52 49 43 41 32 26 19 8 4 13 20 26 30 35 38 41 44 46 50 51
32 30 29 32 25 28 28 30 33 31 32 35 35 36 40 40 41 37 37 34 35 38 40 42 44 45 43 40 34 34 29 29 23 17 13 11 8 6 2 3 6 10 11 11
39 34 30 33 29 32 23 26 33 30 32 31 32 33 32 38 39 37 34 31 29 27 30 33 33 35 36 35 35 30 31 23 27 28 28 27 24 22 18 15 12 9 8 7
45 44 38 35 34 31 31 30 31 27 32 34 31 30 34 33 37 36 33 30 29 25 23 24 25 25 26 26 26 28 27 26 16 17 19 21 19 21 22 22 18 18 16 14
53 48 42 41 38 37 35 34 31 31 33 35 29 31 33 34 35 37 34 29 29 25 20 21 22 20 18 18 18 16 19 19 19 17 19 19 19 13 13 14 19 15 18 16
55 53 47 46 42 43 45 41 34 33 34 36 35 41 39 36 38 40 37 34 32 31 24 21 20 21 20 16 17 13 12 13 16 14 13 16 15 14 11 10 12 17 11 16
64 57 58 54 54 50 49 48 46 46 39 38 41 43 42 45 44 44 41 38 38 34 31 24 24 23 22 23 20 20 18 17 17 14 16 17 20 21 19 20 19 19 19 17
69 67 62 58 61 59 55 54 54 54 52 49 43 46 49 46 47 48 47 43 40 35 30 28 31 28 24 26 25 25 26 26 24 21 22 21 24 29 33 30 25 26 26 26
77 75 74 69 62 67 62 63 59 56 59 60 61 53 50 54 51 50 50 50 45 42 39 39 39 34 33 32 32 32 35 36 35 35 32 30 31 34 34 36 37 34 35 33
81 81 78 75 76 70 66 69 68 68 62 59 62 64 61 59 60 60 54 54 50 48 45 43 40 39 42 44 45 47 44 41 42 43 37 33 38 38 36 35 38 40 45 46
91 86 85 84 80 75 74 74 75 76 75 73 67 65 68 66 64 63 61 61 59 57 53 53 53 53 51 52 50 53 53 49 44 45 50 53 55 52 48 45 47 49 49 49
91 93 94 90 87 87 84 80 77 78 79 76 75 68 68 73 72 70 69 66 64 64 63 61 59 58 57 57 59 63 59 53 51 50 52 53 60 57 56 57 60 59 56 56
91 94 99 99 93 88 89 83 82 84 84 78 79 76 76 74 77 78 74 74 75 70 70 71 68 67 66 61 64 72 66 64 60 57 57 58 61 61 60 60 62 63 64 62
98 103 97 97 101 94 93 89 87 88 89 88 84 81 83 81 81 79 80 80 79 78 76 75 75 75 72 69 69 76 73 72 72 69 67 66 66 67 68 67 66 67 68 66
103 102 102 97 95 96 96 97 93 92 95 94 92 92 91 94 89 90 88 90 89 87 85 82 82 79 80 76 79 83 83 83 82 80 78 80 80 79 77 76 77 74 74 76
109 104 105 105 100 98 103 100 101 98 101 100 97 101 100 98 99 99 97 92 92 88 89 90 89 87 89 90 89 90 91 91 91 90 91 88 88 90 91 90 88 88 88 88
106 104 101 102 106 101 103 104 103 101 100 93 98 96 105 108 103 101 106 105 100 96 92 92 95 94 100 100 97 98 98 97 97 99 100 102 102 101 101 101 99 98 98 98
102 102 101 99 96 94 96 95 92 91 91 91 90 97 100 105 106 103 105 107 108 106 103 100 96 98 105 108 108 108 108 108 108 108 108 108 107 108 109 110 108 105 105 105
97 98 96 96 96 94 92 88 89 90 88 88 90 89 90 94 99 101 100 101 105 106 105 106 104 107 111 110 110 110 107 106 108 111 115 117 117 113 109 108 109 109 108 107
99 98 98 96 95 95 91 88 89 89 87 88 89 86 88 87 90 93 96 98 98 98 97 101 107 112 111 112 112 112 112 112 111 109 110 111 113 115 113 112 110 102 98 95
101 101 101 101 99 96 94 93 92 91 91 91 90 90 89 88 90 92 90 93 93 91 91 93 96 94 94 99 104 106 112 114 114 116 116 114 110 99 95 95 94 93 94 96
100 101 101 99 99 98 98 96 94 93 92 92 94 93 92 93 93 91 90 91 91 91 93 94 91 89 89 90 92 95 99 103 105 105 104 100 96 94 93 93 93 93 89 87
94 95 95 95 96 95 94 94 94 92 91 92 93 92 93 93 91 91 94 94 93 92 91 88 88 90 92 95 96 97 96 96 94 93 93 94 94 92 91 91 91 89 87 85
85 86 87 87 88 89 89 88 88 88 89 89 89 88 89 89 92 96 98 97 97 91 88 88 90 91 91 93 93 92 92 93 94 94 94 93 91 91 90 87 86 83 82 80
Wind_Direction
333 336 343 352 351 351 359 2 7 12 17 21 23 29 29 30 31 33 37 43 48 54 57 66 167 206 219 219 221 225 231 233 237 237 242 248 252 253 251 251 252 252 253 259
316 323 332 334 345 347 347 354 356 3 6 12 17 20 26 29 28 30 31 34 41 49 47 55 63 79 194 211 221 226 232 238 241 243 244 248 251 251 253 255 257 257 259 259
307 312 319 324 331 338 338 342 349 355 357 1 7 13 16 21 26 28 28 29 28 38 41 50 57 60 68 80 175 224 234 242 245 248 253 255 256 255 255 255 257 259 260 262
294 302 308 315 325 328 327 336 341 341 349 354 359 2 7 11 15 21 24 24 25 25 34 38 42 48 55 60 71 76 80 88 229 249 253 256 258 259 259 259 260 260 262 265
293 294 295 302 305 313 325 313 324 333 339 346 347 354 358 1 3 7 12 20 21 18 22 29 31 36 37 55 61 58 63 68 73 78 77 75 76 73 60 275 270 267 265 272
287 290 289 292 295 302 312 302 311 321 327 333 334 339 346 350 351 352 356 3 10 15 11 13 21 26 28 33 36 46 55 68 69 73 73 72 72 72 68 62 55 47 34 7
278 283 284 290 291 293 296 296 305 302 309 316 318 323 330 334 339 341 342 346 351 356 0 358 6 10 17 19 20 27 27 41 71 60 37 46 53 61 64 54 55 53 49 45
280 276 274 276 283 289 287 289 293 296 297 308 301 313 318 319 325 334 331 332 337 335 338 340 339 347 352 358 5 6 9 9 14 21 20 18 20 31 27 22 13 30 31 31
273 272 275 276 276 280 281 279 279 284 288 294 294 304 305 310 311 318 322 319 327 327 321 320 324 324 321 327 326 328 330 337 344 345 345 345 341 345 342 343 343 343 349 350
279 274 273 272 276 273 272 273 273 273 269 279 283 292 290 297 302 304 308 307 312 314 315 306 304 307 308 307 311 299 306 302 317 306 315 308 317 316 313 310 320 316 316 315
271 266 271 274 273 272 268 270 272 270 271 268 269 281 287 291 294 297 300 300 299 299 299 297 305 293 296 294 295 294 296 294 290 294 296 286 286 299 301 303 308 308 301 304
271 268 267 265 274 270 271 270 271 271 269 270 273 269 269 279 280 288 288 291 291 288 293 292 295 296 291 294 291 286 288 288 294 293 285 283 279 290 296 295 295 296 300 298
267 270 271 273 273 268 264 267 270 269 266 268 271 270 268 270 273 274 280 281 284 284 282 287 284 283 286 287 286 289 289 282 281 293 279 280 281 283 288 291 280 289 293 296
268 267 271 269 267 268 269 265 266 266 269 269 271 274 266 264 264 268 272 275 275 278 278 281 281 281 283 282 283 287 284 282 281 281 282 287 286 285 289 282 281 281 285 289
264 266 267 269 266 268 269 269 265 265 267 268 266 268 270 265 264 266 266 266 270 272 274 274 274 276 279 278 280 281 283 283 282 281 282 281 280 283 281 278 279 283 283 283
266 270 265 266 264 266 268 264 261 263 262 261 261 262 263 266 265 262 262 265 267 266 269 271 270 271 272 274 275 274 280 282 281 279 279 281 282 284 284 280 278 278 282 285
268 277 273 267 265 265 264 263 261 260 261 261 259 261 261 265 262 262 262 261 263 264 264 267 269 271 271 270 272 272 275 276 278 279 274 274 278 280 282 281 280 279 276 280
272 271 271 270 268 266 265 262 262 260 259 259 260 258 263 260 265 261 261 261 260 262 264 264 264 267 268 267 268 272 273 274 274 276 278 278 277 279 280 280 280 278 275 277
271 270 269 270 270 270 270 267 264 265 262 262 262 258 262 264 263 262 261 260 260 262 261 259 261 264 265 266 266 268 269 271 274 275 278 279 279 280 279 279 280 277 277 278
266 266 266 266 267 267 269 268 269 268 269 268 262 265 262 261 265 264 262 263 262 261 261 262 263 263 265 265 265 267 269 269 273 276 278 281 282 281 282 282 281 280 280 281
266 267 266 265 265 267 268 266 269 267 268 266 267 265 265 262 263 265 262 261 261 265 264 263 265 264 265 267 268 270 270 272 274 276 277 279 280 280 282 282 282 283 284 285
264 264 265 265 265 264 266 266 266 266 265 264 265 265 266 265 263 263 263 262 263 265 265 265 266 265 263 266 269 271 272 274 275 275 276 277 278 279 280 280 282 282 283 284
262 262 263 263 263 265 266 264 264 264 264 263 264 266 264 266 266 265 266 267 266 266 266 265 263 264 266 267 269 270 271 273 274 275 277 279 279 279 280 281 283 281 282 282
259 261 262 262 264 264 264 263 264 263 263 265 265 265 264 265 265 265 267 268 268 268 268 267 269 270 270 270 270 271 271 270 271 273 278 281 282 281 281 280 279 281 282 280
259 260 260 262 263 264 265 265 265 264 263 264 265 264 265 266 265 266 267 267 267 268 268 269 271 273 273 273 274 274 274 274 275 276 278 280 281 281 281 281 280 279 279 279
259 260 261 263 264 264 264 264 265 264 264 264 263 264 264 265 267 267 267 267 267 267 268 271 272 273 272 273 274 275 276 277 277 278 279 278 278 279 280 280 278 278 278 276
259 260 261 262 263 263 264 265 265 265 265 265 266 266 267 266 266 265 266 267 267 270 272 272 272 271 272 273 273 274 275 276 277 278 278 278 278 278 278 277 278 278 278 278